#timestamp,LO_Frequency,Hit,StdDev 
1627642815.5,286046998.1,N
1627642835.6,286046998.2,N
1627642855.4,286047001.1,N
1627642875.3,286046998.4,N
1627642895.1,286046998.6,N
1627642915.8,286047001.1,N
1627642935.7,286047000.8,N
1627642955.5,286046998.3,N
1627642975.4,286046998.2,N
1627642995.2,286046998.3,N
1627643015.0,286046998.4,N
1627643015.9,286046998.4,N
1627643035.8,286046998.3,N
1627643055.6,286046999.5,N
1627643075.4,286046998.9,N
1627643095.3,286046998.7,N
1627643115.1,286046998.1,N
1627643135.9,286046998.2,N
1627643155.7,286047000.8,N
1627643175.5,286047000.7,N
1627643195.4,286047000.4,N
1627643215.2,286047000.4,N
1627643235.0,286047000.8,N
1627643235.9,286047000.8,N
1627643255.8,286047000.9,N
1627643275.6,286047000.7,N
1627643295.5,286047000.9,N
1627643315.3,286047000.4,N
1627643335.1,286047000.3,N
1627643355.9,286047000.8,N
1627643375.7,286047000.6,N
1627643395.5,286047001.0,N
1627643415.4,286047000.6,N
1627643435.8,286046998.1,N
1627643455.6,286046998.3,N
1627643475.5,286046998.8,N
1627643495.3,286046998.6,N
1627643515.1,286047000.7,N
1627643535.9,286047001.2,N
1627643555.7,286046998.1,N
1627643575.5,286046998.6,N
1627643595.4,286046998.2,N
1627643615.2,286046998.5,N
1627643635.1,286047001.2,N
1627643636.0,286047001.2,N
1627643655.8,286047000.8,N
1627643675.6,286047000.8,N
1627643695.5,286047001.2,N
1627643715.3,286046998.1,N
1627643735.1,286046998.2,N
1627643755.9,286046998.8,N
1627643775.7,286047001.2,N
1627643795.6,286047000.7,N
1627643815.4,286047000.8,N
1627643835.2,286047001.0,N
1627643855.1,286047000.2,N
1627643856.0,286047000.2,N
1627643875.8,286046998.1,N
1627643895.6,286047000.9,N
1627643915.5,286047000.5,N
1627643935.3,286047001.0,N
1627643955.2,286047001.2,N
1627643975.9,286047001.0,N
1627643995.7,286046998.4,N
1627644015.6,286046998.1,N
1627644035.4,286046998.2,N
1627644055.2,286047000.7,N
1627644075.1,286046998.1,N
1627644076.0,286046998.1,N
1627644095.8,286047001.1,N
1627644115.7,286046998.1,N
1627644135.5,286046998.5,N
1627644155.3,286046999.5,N
1627644175.2,286046996.6,N
1627644195.0,286046997.7,N
1627644195.9,286046997.7,N
1627644215.8,286046997.3,N
1627644235.6,286046997.7,N
1627644255.4,286046997.5,N
1627644275.3,286046998.0,N
1627644295.1,286046997.6,N
1627644315.8,286046997.6,N
1627644335.7,286046997.7,N
1627644355.5,286046996.7,N
1627644375.4,286046999.6,N
1627644395.2,286046999.0,N
1627644415.0,286046999.3,N
1627644415.9,286046999.3,N
1627644435.8,286046998.4,N
1627644455.6,286047001.2,N
1627644475.4,286046998.1,N
1627644495.3,286047000.7,N
1627644515.1,286047000.9,N
1627644535.9,286047001.0,N
1627644555.7,286047001.1,N
1627644575.5,286047000.3,N
1627644595.4,286047002.8,N
1627644615.2,286047000.2,N
1627644635.0,286046999.8,N
1627644635.9,286046999.8,N
1627644655.8,286047000.4,N
1627644675.6,286046999.7,N
1627644695.5,286047000.0,N
1627644715.3,286047002.3,N
1627644735.1,286047002.4,N
1627644755.9,286047000.0,N
1627644775.7,286047000.3,N
1627644795.5,286047000.5,N
1627644815.4,286047000.3,N
1627644835.2,286047001.1,N
1627644855.1,286046998.5,N
1627644856.0,286046998.5,N
1627644875.8,286046999.0,N
1627644895.6,286046999.2,N
1627644915.5,286046999.0,N
1627644935.3,286046998.9,N
1627644955.1,286046999.4,N
1627644975.9,286046999.6,N
1627644995.7,286046996.9,N
1627645015.6,286046996.8,N
1627645035.4,286046999.6,N
1627645055.2,286046999.3,N
1627645075.1,286046999.2,N
1627645076.0,286046999.2,N
1627645095.8,286046997.1,N
1627645115.6,286046997.3,N
1627645135.5,286046997.3,N
1627645155.3,286046997.8,N
1627645175.2,286046997.2,N
1627645195.9,286046997.2,N
1627645215.7,286046996.5,N
1627645235.6,286046999.4,N
1627645255.4,286046996.6,N
1627645275.2,286046999.2,N
1627645295.1,286046996.9,N
1627645296.0,286046996.9,N
1627645315.8,286046996.9,N
1627645335.7,286046996.8,N
1627645355.5,286046996.9,N
1627645375.3,286046997.8,N
1627645395.2,286046997.9,N
1627645415.0,286046995.0,Y
1627645415.9,286046995.0,P
1627645435.8,286046997.3,N
1627645455.6,286046997.1,N
1627645475.4,286046999.2,N
1627645495.3,286046999.2,N
1627645515.1,286046996.6,N
1627645535.9,286046996.5,N
1627645555.7,286046999.1,N
1627645575.5,286046996.7,N
1627645595.4,286046996.8,N
1627645615.2,286046997.9,N
1627645635.1,286046997.6,N
1627645636.0,286046997.6,N
1627645655.8,286046997.8,N
1627645675.6,286046997.8,N
1627645695.5,286046996.7,Y
1627645715.3,286047000.0,P
1627645735.1,286047000.5,N
1627645755.9,286047002.3,N
1627645775.7,286047001.5,N
1627645795.6,286047004.0,N
1627645815.4,286047001.8,N
1627645835.2,286047003.8,N
1627645855.1,286047004.4,N
1627645856.0,286047004.4,N
1627645875.8,286047003.5,N
1627645895.7,286047004.3,N
1627645915.5,286047001.9,N
1627645935.3,286047001.7,N
1627645955.2,286047002.4,N
1627645975.0,286047002.0,N
1627645975.9,286047002.0,N
1627645995.7,286047000.1,N
1627646015.6,286047002.1,N
1627646035.4,286047002.2,N
1627646055.3,286047002.4,N
1627646075.1,286047002.1,N
1627646076.0,286047002.1,N
1627646095.8,286047001.9,N
1627646115.7,286047001.8,N
1627646135.5,286047001.4,N
1627646155.4,286047001.5,N
1627646175.2,286047003.8,N
1627646195.0,286047004.2,N
1627646195.9,286047004.2,N
1627646215.8,286047003.1,N
1627646235.6,286047003.8,Y
1627646255.5,286047000.0,P
1627646275.3,286046998.4,N
1627646295.1,286046998.3,N
1627646315.9,286046998.9,N
1627646335.7,286046998.6,N
1627646355.5,286046998.2,N
1627646375.4,286046998.4,N
1627646395.2,286046998.2,N
